Regional Weather Roundup
Issued by NWS Kansas City/Pleasant Hill, MO

Home | Current Version | Previous Version | Text Only | Print | Product List | Glossary On
Versions: 1 2 3 4 5 6 7 8 9 10 11 12 13 14 15 16 17 18 19 20 21 22 23 24 25 26 27 28 29 30 31 32 33 34 35 36 37 38 39 40 41 42 43 44 45 46 47 48 49 50
000
ASUS43 KEAX 172111
RWREAX

WEATHER ROUNDUP FOR EASTERN KANSAS AND NORTHWEST MISSOURI
NATIONAL WEATHER SERVICE KANSAS CITY/PLEASANT HILL MO
400 PM CDT THU APR 17 2014

KSZ040-057-103>105-MOZ028-029-037-043-172200-
...KANSAS CITY METROPOLITAN AREA...

CITY           SKY/WX    TMP DP  RH WIND       PRES   REMARKS
K.C. INTL      CLOUDY    47  31  53 E3        30.28F
K.C. DOWNTOWN  CLOUDY    47  32  56 CALM      30.28F
LEES SUMMIT    CLOUDY    44  32  62 CALM      30.28F
OLATHE - IXD   CLOUDY    44  33  65 CALM      30.28F
OLATHE - OJC   CLOUDY    44  32  62 CALM      30.27F
LAWRENCE       CLOUDY    49  32  52 CALM      30.28F

$$

MOZ001>008-011>017-020>025-030>033-038>040-044>046-053-054-172200-
...NORTHERN AND CENTRAL MISSOURI...

CITY           SKY/WX    TMP DP  RH WIND       PRES   REMARKS
ST. JOSEPH     MOSUNNY   52  30  43 MISG      30.27F
MOSBY          FAIR      46  34  61 CALM      30.28F
WARRENSBURG    DRIZZLE  N/A N/A N/A CALM      30.28F
WHITEMAN AFB   LGT RAIN  46  34  61 NE6       30.27F
CLINTON        CLOUDY    48  37  66 N7        30.29S
SEDALIA        CLOUDY    48  38  68 NW6       30.28F
WARSAW         NOT AVBL
MARSHALL         N/A     50  39  66 W6        30.30
CHILLICOTHE      N/A     50  33  52 CALM      30.28F
MOBERLY        CLOUDY    52  34  50 CALM      30.27
KIRKSVILLE     CLOUDY    51  33  50 CALM      30.26S

$$

MOZ041-047>049-056>058-063>065-088>090-097-172200-
...EASTERN AND SOUTHERN MISSOURI...

CITY           SKY/WX    TMP DP  RH WIND       PRES   REMARKS
ST. LOUIS INTL CLOUDY    65  38  36 N3        30.22F
SPIRIT OF STL  PTSUNNY   65  36  34 VRB3      30.20F
COLUMBIA       CLOUDY    53  39  59 NW12      30.25F
JEFFERSON CITY CLOUDY    57  38  48 NW7       30.24F
MEXICO         CLOUDY    50  39  66 NW6       30.26F
HANNIBAL       CLOUDY    54  32  43 NW5       30.26F
ROLLA          PTSUNNY   61  39  44 N9        30.20F
LEBANON        CLOUDY    63  34  34 NW7       30.22R
OSAGE BEACH    PTSUNNY   61  36  39 CALM      30.24S
SPRINGFIELD    CLOUDY    63  39  41 NW8       30.21S
BRANSON        PTSUNNY   66  34  30 N9        30.19F
NEVADA         PTSUNNY   52  37  58 N9        30.28S
JOPLIN         CLOUDY    60  42  51 N10       30.23F
WEST PLAINS    MOSUNNY   66  33  29 CALM      30.20F

$$

IAZ060-094-KSZ022-034>040-054-083-096-NEZ052-066-093-172200-
...KANSAS...SOUTHEAST NEBRASKA AND IOWA...

CITY           SKY/WX    TMP DP  RH WIND       PRES   REMARKS
TOPEKA         CLOUDY    51  33  50 CALM      30.28F
MANHATTAN      MOSUNNY   54  31  41 CALM      30.25F
EMPORIA        CLOUDY    45  34  65 CALM      30.27F HAZE
CHANUTE        CLOUDY    46  34  62 N7        30.28F
WICHITA        CLOUDY    46  34  62 NE6       30.27F
OMAHA          MOSUNNY   53  25  33 N5        30.26F
LINCOLN        SUNNY     57  25  29 MISG      30.27F
FALLS CITY     SUNNY     53  29  39 VRB3      30.26F
LAMONI         SUNNY     53  31  42 NW6       30.24F
DES MOINES     MOSUNNY   52  29  41 W5        30.26F

$$




USA.gov is the U.S. government's official web portal to all federal, state and local government web resources and services.